Regional Weather Roundup
Issued by NWS

Home | Current Version | Previous Version | Text Only | Print | Product List | Glossary On
Versions: 1 2 3 4 5 6 7 8 9 10 11 12 13 14 15 16 17 18 19 20 21 22 23 24 25 26 27 28 29 30 31 32 33 34 35 36 37 38 39 40 41 42 43 44 45 46 47 48 49 50
000
ASUS45 KSLC 230010
RWRUT

UTAH REGIONAL WEATHER ROUNDUP
NATIONAL WEATHER SERVICE SALT LAKE CITY UT
500 PM MST MON DEC 22 2014

UTZ001>011-023>025-230100-

NORTHERN UTAH

CITY           SKY/WX    TMP DP  RH WIND       PRES   REMARKS
BRIGHAM CITY   CLOUDY    42  30  63 NW20G26   30.04R
HILL AFB       MOCLDY    40  28  62 NW21G28   30.02R WCI  30
LOGAN          LGT SNOW  33  31  92 N21G26    30.04R FOG     WCI  21
OGDEN          MOCLDY    41  29  62 NW17G26   30.01R
PROVO AIRPORT  MOCLDY    43  37  81 NW21G30   30.01R
SALT LAKE CITY MOCLDY    42  27  55 NW21G32   30.01R
VERNAL         PTCLDY    38  14  37 N22G33    29.89R WCI  27
WENDOVER       MOCLDY    46  27  46 NE13G21   30.10R
HEBER CITY     LGT SNOW  32  30  93 SW6       29.96R WCI  26
WEST JORDAN    MOCLDY    41  34  75 NW23G31   30.02R

$$

UTZ012>022-026-027-230100-

SOUTHERN/CENTRAL UTAH

CITY           SKY/WX    TMP DP  RH WIND       PRES   REMARKS
BLANDING       PTCLDY    44  22  42 NW26G45   29.89R
BRYCE CANYON   CLOUDY    34  31  88 NW24G33   30.02S WCI  21
CEDAR CITY     MOCLDY    44  34  67 NE13      30.03S
DELTA          MOCLDY    42  32  67 N22       30.04S
MILFORD        PTCLDY    44  37  76 N9        30.04R
MOAB/CYNLANDS  CLEAR     47  22  37 NW29G36   29.82R
PRICE          PTCLDY    39  20  46 NW18G30   29.89R WCI  30
ST GEORGE      MOCLDY    61  37  41 NE9       29.97R
KANAB          MOCLDY    54  34  47 W6        30.03R

$$

REGIONAL REPORTS     COLORADO/ARIZONA

CITY           SKY/WX    TMP DP  RH WIND       PRES   REMARKS
CRAIG, CO      LGT SNOW  26  22  84 N13       29.88R FOG     WCI  15
GRAND JUNCTION CLOUDY    36  31  82 W5        29.85R WCI  32
RIFLE          MOCLDY    30  26  85 S6        29.87F WCI  24
MONTROSE       CLOUDY    34  30  85 NE6       29.85R WCI  29
CORTEZ         CLEAR     44  28  53 NW20G32   29.79S
PAGE, AZ       CLEAR     56  33  42 NW17G26   29.92R
GRAND CANYON   CLEAR     48  32  53 VRB5      30.00S
KINGMAN        CLEAR     64  37  36 N3        30.01R
FLAGSTAFF      CLEAR     49  30  48 NW7       30.02R

$$

REGIONAL REPORTS    NEVADA/IDAHO/WYOMING

CITY           SKY/WX    TMP DP  RH WIND       PRES   REMARKS
LAS VEGAS, NV  PTCLDY    74  35  24 W8        29.93S
ELY            CLOUDY    44  33  65 NW13G26   30.15R
ELKO           CLEAR     43  30  60 N5        30.18R
POCATELLO, ID  PTCLDY    37  24  59 N17G26    30.05R WCI  27
BURLEY         CLEAR     38  29  70 W21G36    30.07R WCI  28
EVANSTON, WY   FLURRIES  28  24  85 NW12      29.95R WCI  18
ROCK SPRINGS   CLEAR     25  14  63 NW16G22   29.87R WCI  12
KEMMERER       LGT SNOW  27  23  86 W24G30    29.93R WCI  12

$$



USA.gov is the U.S. government's official web portal to all federal, state and local government web resources and services.